Regional Weather Roundup
Issued by NWS

Home | Current Version | Previous Version | Graphics & Text | Print | Product List | Glossary On
Versions: 1 2 3 4 5 6 7 8 9 10 11 12 13 14 15 16 17 18 19 20 21 22 23 24 25 26 27 28 29 30 31 32 33 34 35 36 37 38 39 40 41 42 43 44 45 46 47 48 49 50
000
ASUS43 KTOP 210459
RWRKS

WEATHER ROUNDUP FOR KANSAS
NATIONAL WEATHER SERVICE GOODLAND KS
1200 AM CDT TUE OCT 21 2014

NOTE:  "FAIR" INDICATES FEW OR NO CLOUDS BELOW 12,000 FEET WITH NO
SIGNIFICANT WEATHER AND/OR OBSTRUCTIONS TO VISIBILITY.

KSZ001>006-013>018-027>032-041>047-210600-
NORTHWEST KANSAS

CITY           SKY/WX    TMP DP  RH WIND       PRES   REMARKS
GOODLAND       CLEAR     51  39  63 S12       30.11F
HAYS           CLEAR     52  43  71 CALM      30.09S
HILL CITY      CLEAR     47  40  76 W5        30.08F
RUSSELL        CLEAR     52  44  74 S7        30.07S
$$

KSZ061>065-074>080-084>089-210600-
SOUTHWEST KANSAS

CITY           SKY/WX    TMP DP  RH WIND       PRES   REMARKS
DODGE CITY     CLEAR     54  45  71 SE9       30.10F
ELKHART          N/A     53  49  86 SE8         N/A
GARDEN CITY    CLEAR     51  41  68 SE7       30.10F
GREAT BEND     CLEAR     48  43  81 CALM      30.09F
LIBERAL        CLEAR     59  52  77 E7        30.12F
$$

KSZ066>073-081>083-090>101-210600-
SOUTHEAST KANSAS

CITY           SKY/WX    TMP DP  RH WIND       PRES   REMARKS
CHANUTE        CLEAR     51  49  92 CALM      30.07F
COFFEYVILLE    CLEAR     54  53  97 CALM      30.07S
HUTCHINSON     CLEAR     49  43  80 CALM      30.08F
NEWTON         CLEAR     57  41  54 E5        30.10S
PARSONS        CLEAR     53  52  96 CALM      30.08S
WICHITA INTL   CLEAR     56  47  71 CALM      30.07F
WICHITA JABRA  CLEAR     57  45  64 E3        30.07F
WINFIELD       CLEAR     57  54  89 CALM      30.08S
$$

KSZ007>012-019>026-033>040-048>060-102>105-210600-
NORTHEAST KANSAS

CITY           SKY/WX    TMP DP  RH WIND       PRES   REMARKS
CONCORDIA      CLEAR     54  42  64 SE6       30.07S
EMPORIA        CLEAR     53  46  77 CALM      30.07F
LAWRENCE       CLEAR     42  40  92 CALM      30.08S
MANHATTAN      CLEAR     44  42  93 CALM      30.08S
OLATHE IND     CLEAR     52  44  74 CALM      30.08S
OLATHE EXE     CLEAR     52  45  77 SW5       30.07S
SALINA         CLEAR     52  47  83 S3        30.07F
TOPEKA BILLARD CLEAR     48  44  86 CALM      30.08F
TOPEKA FORBES  FAIR      46  42  86 CALM      30.07F
$$


USA.gov is the U.S. government's official web portal to all federal, state and local government web resources and services.